EW3182 Weather Reports


time (UTC)temp
C
wind
direction
speed
KPH
gust
KPH
rain 1hr
cm
rain 24hr
cm
rain mn
cm
humidity
%
barometer
mb
20260509150046 26 290 0.0 1.6 0.00 0.00 0.00 62 1009.4
20260509144544 26 5 0.0 3.2 0.00 0.00 0.00 64 1009.5
20260509143043 25 104 0.0 1.6 0.00 0.00 0.00 66 1009.4
20260509141544 25 56 0.0 1.6 0.00 0.00 0.00 69 1009.3
20260509140036 25 96 0.0 0.0 0.00 0.00 0.00 76 1009.4
20260509134533 24 97 0.0 1.6 0.00 0.00 0.00 78 1009.4
20260509133028 23 72 0.0 1.6 0.00 0.00 0.00 79 1009.2
20260509131529 23 44 0.0 1.6 0.00 0.00 0.00 80 1009.3
20260509130025 22 118 0.0 0.0 0.00 0.00 0.00 80 1009.3
20260509124519 21 131 0.0 1.6 0.00 0.00 0.00 79 1009.3
20260509123019 20 81 0.0 0.0 0.00 0.00 0.00 77 1009.4
20260509121520 19 4 0.0 0.0 0.00 0.00 0.00 76 1009.2
20260509120022 18 93 0.0 0.0 0.00 0.00 0.00 77 1009.0
20260509114513 -17 0.0 0.0 0.00 0.00 0.00 1008.9
20260509113009 -17 0.0 0.0 0.00 0.00 0.00 1008.6
20260509111507 -17 0.0 0.0 0.00 0.00 0.00 1008.1
20260509110059 -17 0.0 0.0 0.00 0.00 0.00 1007.8
20260509104608 -17 0.0 0.0 0.00 0.00 0.00 1007.8
20260509103103 -17 0.0 0.0 0.00 0.00 0.00 1007.7
20260509101546 -17 0.0 0.0 0.00 0.00 0.00 1007.7
20260509100041 -17 0.0 0.0 0.00 0.00 0.00 1007.5
20260509094538 -17 0.0 0.0 0.00 0.00 0.00 1007.1
20260509093034 21 98 0.0 0.0 0.00 0.00 0.00 79 1006.9
20260509091537 21 98 0.0 0.0 0.00 0.00 0.00 79 1007.0
20260509090047 21 105 0.0 12.9 0.00 0.00 0.00 79 1006.4
20260509084533 21 259 3.2 17.7 0.00 0.00 0.00 79 1005.6
20260509083030 21 193 1.6 11.3 0.00 0.00 0.00 79 1005.7
20260509081542 20 274 3.2 11.3 0.00 0.00 0.00 78 1005.5
20260509080025 20 273 1.6 6.4 0.00 0.00 0.00 78 1007.0
20260509074521 20 244 1.6 8.0 0.00 0.00 0.00 78 1007.9
20260509073034 20 224 0.0 6.4 0.00 0.00 0.00 78 1008.5
20260509071516 20 190 0.0 4.8 0.00 0.00 0.00 76 1009.0
20260509070030 20 193 0.0 4.8 0.00 0.00 0.00 74 1009.3
20260509064512 19 314 0.0 0.0 0.00 0.00 0.00 75 1010.0
20260509063017 19 314 0.0 0.0 0.00 0.00 0.00 76 1009.7
20260509061508 20 313 0.0 0.0 0.00 0.00 0.00 77 1009.7
20260509060007 20 314 0.0 1.6 0.00 0.00 0.00 77 1009.7
20260509054506 20 162 0.0 0.0 0.00 0.00 0.00 79 1010.1
20260509053005 20 162 0.0 0.0 0.00 0.00 0.00 79 1010.1
20260509051601 20 162 0.0 0.0 0.00 0.00 0.00 80 1010.2
20260509050056 21 162 0.0 0.0 0.00 0.00 0.00 81 1009.5
20260509044556 21 160 0.0 1.6 0.00 0.00 0.00 81 1009.4
20260509043054 21 132 0.0 4.8 0.00 0.00 0.00 81 1009.0
20260509041554 21 229 0.0 4.8 0.00 0.00 0.00 80 1008.8
20260509040054 21 170 0.0 3.2 0.00 0.00 0.00 80 1009.0
20260509034553 21 133 0.0 1.6 0.00 0.00 0.00 80 1009.2
20260509033052 22 132 0.0 0.0 0.00 0.00 0.00 80 1009.3
20260509031551 22 297 0.0 1.6 0.00 0.00 0.00 80 1008.7
20260509030054 22 273 0.0 3.2 0.00 0.00 0.00 80 1008.3
20260509024551 22 289 0.0 3.2 0.00 0.00 0.00 80 1008.0
20260509023050 22 271 0.0 6.4 0.00 0.00 0.00 80 1007.5
20260509021549 22 110 0.0 4.8 0.00 0.00 0.00 80 1007.5
20260509020055 22 281 1.6 8.0 0.00 0.00 0.00 80 1007.1
20260509014550 22 212 0.0 4.8 0.00 0.00 0.00 79 1007.4
20260509013050 22 122 0.0 1.6 0.00 0.00 0.00 79 1007.6
20260509011547 22 138 0.0 3.2 0.00 0.00 0.00 79 1007.8
20260509010048 22 249 0.0 4.8 0.00 0.00 0.00 78 1007.3
20260509004546 22 232 0.0 6.4 0.00 0.00 0.00 78 1007.0
20260509003046 22 257 0.0 4.8 0.00 0.00 0.00 77 1006.9
20260509001543 22 280 0.0 6.4 0.00 0.00 0.00 76 1006.9
20260509000042 22 264 0.0 3.2 0.00 0.00 0.00 76 1007.0
20260508234544 22 269 0.0 6.4 0.00 0.00 0.00 76 1007.2
20260508233037 22 235 1.6 6.4 0.00 0.00 0.00 75 1007.4
20260508231536 22 296 0.0 6.4 0.00 0.00 0.00 74 1007.5
20260508230035 23 293 0.0 6.4 0.00 0.00 0.00 74 1007.4
20260508224535 23 276 0.0 6.4 0.00 0.00 0.00 73 1007.4
20260508223039 23 135 1.6 12.9 0.00 0.00 0.00 72 1007.4
20260508221533 23 269 0.0 6.4 0.00 0.00 0.00 71 1007.5
20260508220034 23 274 1.6 11.3 0.00 0.00 0.00 70 1007.6
20260508214528 23 288 3.2 9.7 0.00 0.00 0.00 68 1007.8
20260508213027 23 270 1.6 9.7 0.00 0.00 0.00 68 1007.9
20260508211524 23 218 1.6 8.0 0.00 0.00 0.00 68 1008.1
20260508210024 23 293 0.0 9.7 0.00 0.00 0.00 66 1008.3
20260508204521 23 142 0.0 6.4 0.00 0.00 0.00 67 1008.2
20260508203018 21 99 0.0 4.8 0.00 0.00 0.00 71 1008.8
20260508201515 21 75 0.0 9.7 0.00 0.00 0.00 71 1009.6
20260508200013 22 160 0.0 6.4 0.00 0.00 0.00 70 1010.0
20260508194514 22 262 0.0 6.4 0.00 0.00 0.00 69 1009.8
20260508193012 22 277 1.6 8.0 0.00 0.00 0.00 70 1009.8
20260508191521 22 183 1.6 8.0 0.00 0.00 0.00 70 1009.9
20260508190013 22 273 0.0 6.4 0.00 0.00 0.00 70 1010.0
20260508184508 23 252 1.6 6.4 0.00 0.00 0.00 67 1010.2
20260508183005 23 248 1.6 6.4 0.00 0.00 0.00 66 1010.4
20260508181502 23 231 1.6 6.4 0.00 0.00 0.00 66 1010.5
20260508180104 23 287 1.6 9.7 0.00 0.00 0.00 66 1010.8
20260508174608 22 122 0.0 8.0 0.00 0.00 0.00 67 1011.1
20260508173059 22 135 1.6 6.4 0.00 0.00 0.00 67 1011.3
20260508171554 22 248 0.0 8.0 0.00 0.00 0.00 66 1011.6
20260508170053 23 269 0.0 4.8 0.00 0.00 0.00 66 1011.7
20260508164550 22 219 0.0 6.4 0.00 0.00 0.00 68 1011.9
20260508163051 21 223 0.0 6.4 0.00 0.00 0.00 68 1012.3
20260508161541 20 285 0.0 8.0 0.00 0.00 0.00 70 1012.7
20260508160039 20 245 1.6 8.0 0.00 0.00 0.00 69 1012.9
20260508154537 20 143 0.0 6.4 0.00 0.00 0.00 69 1013.0
20260508153034 19 250 0.0 6.4 0.00 0.00 0.00 69 1013.1
20260508151536 19 113 0.0 4.8 0.00 0.00 0.00 70 1013.4